User: anonymous
Location: Natural Bridges National Monument
(37.6093°N, 109.9767°W)
Time: 17:54:06
(UTC-06:00)
Language:

Cosmos 1727 Rocket - Orbit

View from above orbital plane
View from above orbital plane
View from above satellite
View from above satellite

Ground track
Ground track

The orbit data is extracted from the following two-line orbital elements,

1 16511U 86008B   14112.83835726  .00000121  00000-0  10976-3 0  4857
2 16511 082.9466 353.7169 0022964 257.7155 149.4929 13.75759327417964
Epoch (UTC): 22 April 2014 20:07:14
Eccentricity: 0.0022964
inclination: 82.9466°
perigee height: 962 km
apogee height: 996 km
right ascension of ascending node: 353.7169°
argument of perigee: 257.7155°
revolutions per day: 13.75759327
mean anomaly at epoch: 149.4929°
orbit number at epoch: 41796

The dashed part of the orbit path shows where the satellite is in the earth's shadow,  

DLR